Radiation Dose at Monitoring Post of Fukushima Daini Nuclear Power Station
Date,Time,MP-1(microSv/h),MP-2(microSv/h),MP-3(microSv/h),MP-4(microSv/h),MP-5(microSv/h),MP-6(microSv/h),MP-7(microSv/h),Wind Direction,Wind Velocity(m/s),Rain
2018/01/22,00:00,0.337,0.204,0.337,0.317,0.303,0.167,0.100,north,5.1,No
2018/01/22,00:10,0.338,0.204,0.336,0.317,0.304,0.168,0.100,north-northwest,5.2,No
2018/01/22,00:20,0.338,0.204,0.336,0.318,0.303,0.167,0.100,north-northwest,4.5,No
2018/01/22,00:30,0.337,0.204,0.338,0.317,0.303,0.167,0.100,north-northwest,3.8,No
2018/01/22,00:40,0.338,0.204,0.336,0.318,0.303,0.167,0.101,north-northwest,5.5,No
2018/01/22,00:50,0.337,0.205,0.336,0.316,0.303,0.167,0.100,north-northwest,5.8,No
2018/01/22,01:00,0.337,0.204,0.338,0.317,0.304,0.167,0.101,north-northwest,7.0,No
2018/01/22,01:10,0.337,0.204,0.336,0.317,0.303,0.166,0.101,north-northwest,8.2,No
2018/01/22,01:20,0.336,0.204,0.338,0.317,0.302,0.168,0.101,north,9.0,No
2018/01/22,01:30,0.338,0.204,0.338,0.317,0.303,0.168,0.101,north,8.8,No
2018/01/22,01:40,0.338,0.204,0.336,0.317,0.303,0.168,0.101,north,9.2,No
2018/01/22,01:50,0.337,0.204,0.337,0.317,0.304,0.169,0.101,north-northwest,10.3,No
2018/01/22,02:00,0.337,0.204,0.336,0.317,0.303,0.167,0.100,north-northwest,9.3,No
2018/01/22,02:10,0.337,0.204,0.336,0.317,0.303,0.168,0.100,north-northwest,7.0,No
2018/01/22,02:20,0.338,0.204,0.336,0.317,0.302,0.167,0.100,north-northwest,8.4,No
2018/01/22,02:30,0.337,0.204,0.335,0.318,0.304,0.168,0.100,north-northwest,5.6,No
2018/01/22,02:40,0.337,0.204,0.337,0.319,0.305,0.167,0.101,north-northeast,4.4,No
2018/01/22,02:50,0.337,0.204,0.337,0.317,0.303,0.168,0.101,north-northeast,4.7,No
2018/01/22,03:00,0.337,0.205,0.338,0.317,0.303,0.167,0.101,north,5.2,No
2018/01/22,03:10,0.338,0.205,0.338,0.317,0.303,0.168,0.100,north-northeast,6.0,No
2018/01/22,03:20,0.338,0.204,0.337,0.319,0.304,0.168,0.100,north,5.8,No
2018/01/22,03:30,0.337,0.205,0.336,0.317,0.303,0.167,0.101,north,6.4,No
2018/01/22,03:40,0.338,0.204,0.337,0.318,0.303,0.169,0.101,north-northeast,6.2,No
2018/01/22,03:50,0.336,0.204,0.337,0.318,0.304,0.168,0.101,north-northeast,7.0,No
2018/01/22,04:00,0.338,0.204,0.337,0.318,0.302,0.167,0.100,north,7.6,No
2018/01/22,04:10,0.337,0.204,0.337,0.317,0.302,0.168,0.100,north,7.8,No
2018/01/22,04:20,0.337,0.205,0.336,0.318,0.304,0.167,0.099,north,8.7,No
2018/01/22,04:30,0.336,0.205,0.336,0.317,0.303,0.168,0.100,north,9.2,No
2018/01/22,04:40,0.337,0.205,0.336,0.318,0.302,0.168,0.100,north,8.4,No
2018/01/22,04:50,0.338,0.204,0.337,0.318,0.303,0.168,0.101,north,8.8,No
2018/01/22,05:00,0.337,0.205,0.337,0.317,0.303,0.168,0.101,north,7.3,No
2018/01/22,05:10,0.338,0.205,0.336,0.317,0.302,0.167,0.101,north,6.8,No
2018/01/22,05:20,0.339,0.204,0.338,0.319,0.303,0.168,0.100,north,5.8,No
2018/01/22,05:30,0.337,0.203,0.337,0.318,0.304,0.167,0.100,north,5.0,No
2018/01/22,05:40,0.337,0.205,0.336,0.318,0.302,0.169,0.100,north,4.0,No
2018/01/22,05:50,0.337,0.204,0.338,0.317,0.302,0.167,0.101,north,2.4,No
2018/01/22,06:00,0.338,0.204,0.336,0.316,0.302,0.169,0.101,north,4.0,No
2018/01/22,06:10,0.339,0.204,0.337,0.317,0.302,0.167,0.101,north,4.5,No
2018/01/22,06:20,0.337,0.204,0.337,0.318,0.302,0.168,0.101,north,6.1,No
2018/01/22,06:30,0.337,0.204,0.336,0.318,0.303,0.168,0.101,north,5.7,No
2018/01/22,06:40,0.338,0.204,0.337,0.317,0.302,0.168,0.101,north,5.5,No
2018/01/22,06:50,0.335,0.204,0.336,0.317,0.302,0.167,0.099,north,7.9,No
2018/01/22,07:00,0.335,0.204,0.338,0.316,0.304,0.167,0.101,north,8.5,No
2018/01/22,07:10,0.338,0.205,0.336,0.316,0.305,0.167,0.100,north,9.2,No
2018/01/22,07:20,0.336,0.204,0.336,0.317,0.302,0.168,0.100,north,9.3,No
2018/01/22,07:30,0.337,0.204,0.337,0.317,0.303,0.168,0.101,north,8.9,No
2018/01/22,07:40,0.336,0.203,0.338,0.318,0.303,0.167,0.100,north,7.7,No
2018/01/22,07:50,0.337,0.204,0.336,0.316,0.303,0.168,0.100,north,7.7,No
2018/01/22,08:00,0.338,0.204,0.337,0.317,0.304,0.169,0.101,north,7.7,No
2018/01/22,08:10,0.336,0.204,0.336,0.317,0.303,0.168,0.101,north,7.8,No
2018/01/22,08:20,0.337,0.204,0.337,0.317,0.304,0.168,0.101,north-northwest,6.0,No
2018/01/22,08:30,0.337,0.205,0.338,0.318,0.303,0.167,0.101,north,5.8,No
2018/01/22,08:40,0.338,0.203,0.336,0.318,0.304,0.168,0.101,north,4.1,No
2018/01/22,08:50,0.338,0.203,0.339,0.317,0.305,0.168,0.101,north-northwest,3.5,No
2018/01/22,09:00,0.338,0.204,0.336,0.317,0.303,0.167,0.101,north-northwest,3.2,No
2018/01/22,09:10,0.338,0.203,0.336,0.319,0.302,0.169,0.101,north,3.3,No
2018/01/22,09:20,0.337,0.204,0.337,0.316,0.302,0.168,0.100,north,4.8,No
2018/01/22,09:30,0.337,0.203,0.338,0.317,0.303,0.168,0.100,north,3.2,No
2018/01/22,09:40,0.337,0.203,0.336,0.317,0.304,0.168,0.101,north,2.4,No
2018/01/22,09:50,0.337,0.205,0.336,0.317,0.302,0.166,0.100,north,2.0,No
2018/01/22,10:00,0.337,0.204,0.335,0.317,0.304,0.168,0.101,north,2.9,No
2018/01/22,10:10,0.337,0.204,0.338,0.318,0.304,0.168,0.100,north-northwest,2.1,Yes
2018/01/22,10:20,0.337,0.204,0.336,0.316,0.303,0.168,0.100,north-northeast,3.6,No
2018/01/22,10:30,0.337,0.203,0.336,0.317,0.301,0.167,0.101,north,5.6,No
2018/01/22,10:40,0.337,0.203,0.336,0.316,0.304,0.168,0.100,north,3.5,No
2018/01/22,10:50,0.338,0.204,0.336,0.318,0.302,0.167,0.101,north-northeast,5.3,No
2018/01/22,11:00,0.336,0.203,0.336,0.318,0.304,0.167,0.101,north-northeast,4.0,No
2018/01/22,11:10,0.336,0.203,0.336,0.316,0.304,0.167,0.101,north,5.2,No
2018/01/22,11:20,0.337,0.203,0.336,0.317,0.304,0.167,0.100,north-northeast,4.8,No
2018/01/22,11:30,0.338,0.204,0.336,0.317,0.304,0.168,0.100,north-northeast,3.8,Yes
2018/01/22,11:40,0.337,0.204,0.335,0.318,0.303,0.168,0.101,north,4.7,No
2018/01/22,11:50,0.338,0.203,0.337,0.316,0.303,0.168,0.100,north,5.1,No
2018/01/22,12:00,0.337,0.205,0.337,0.316,0.303,0.169,0.100,north-northeast,6.1,No
2018/01/22,12:10,0.338,0.203,0.336,0.318,0.305,0.167,0.101,north,3.0,No
2018/01/22,12:20,0.339,0.204,0.337,0.318,0.305,0.169,0.100,north,3.2,No
2018/01/22,12:30,0.338,0.205,0.335,0.316,0.304,0.168,0.101,north,3.7,No
2018/01/22,12:40,0.337,0.204,0.337,0.316,0.304,0.168,0.101,north,4.4,No
2018/01/22,12:50,0.338,0.204,0.338,0.317,0.304,0.167,0.100,north,4.1,No
2018/01/22,13:00,0.338,0.204,0.336,0.318,0.303,0.168,0.100,north,4.3,No
2018/01/22,13:10,0.338,0.204,0.338,0.317,0.304,0.169,0.101,north,2.2,No
2018/01/22,13:20,0.338,0.204,0.336,0.317,0.304,0.168,0.101,north,2.4,No
2018/01/22,13:30,0.335,0.204,0.337,0.319,0.304,0.167,0.101,north,3.9,No
2018/01/22,13:40,0.339,0.204,0.338,0.318,0.302,0.167,0.100,north-northwest,1.0,No
2018/01/22,13:50,0.339,0.205,0.336,0.318,0.304,0.168,0.101,northwest,1.4,No
2018/01/22,14:00,0.337,0.204,0.336,0.316,0.303,0.167,0.100,north,3.3,No
2018/01/22,14:10,0.337,0.205,0.337,0.317,0.304,0.167,0.100,north-northwest,1.5,No
2018/01/22,14:20,0.338,0.204,0.338,0.316,0.303,0.167,0.100,north,5.1,No
2018/01/22,14:30,0.337,0.205,0.338,0.317,0.305,0.167,0.101,north,3.0,No
2018/01/22,14:40,0.341,0.205,0.337,0.318,0.306,0.168,0.101,north,3.7,No
2018/01/22,14:50,0.339,0.205,0.337,0.318,0.305,0.167,0.101,north-northeast,6.9,Yes
2018/01/22,15:00,0.338,0.205,0.338,0.318,0.304,0.168,0.100,north-northeast,5.1,Yes
2018/01/22,15:10,0.340,0.205,0.338,0.319,0.304,0.169,0.101,north-northeast,4.7,Yes
2018/01/22,15:20,0.341,0.205,0.338,0.319,0.306,0.168,0.102,north,6.0,Yes
2018/01/22,15:30,0.340,0.207,0.338,0.320,0.306,0.170,0.100,north-northwest,6.2,Yes
2018/01/22,15:40,0.342,0.207,0.339,0.319,0.305,0.170,0.102,north-northwest,7.0,Yes
2018/01/22,15:50,0.340,0.206,0.340,0.320,0.305,0.170,0.103,north-northwest,7.1,Yes
2018/01/22,16:00,0.340,0.208,0.339,0.321,0.306,0.171,0.103,north-northwest,7.6,Yes
2018/01/22,16:10,0.341,0.208,0.340,0.321,0.307,0.172,0.105,north-northwest,9.5,Yes
2018/01/22,16:20,0.341,0.207,0.341,0.320,0.307,0.172,0.104,north-northwest,9.2,Yes
2018/01/22,16:30,0.341,0.208,0.338,0.318,0.305,0.171,0.104,north-northwest,8.9,Yes
2018/01/22,16:40,0.339,0.206,0.339,0.319,0.306,0.171,0.104,north-northwest,9.2,Yes
2018/01/22,16:50,0.339,0.206,0.339,0.320,0.305,0.171,0.104,north-northwest,7.7,Yes
2018/01/22,17:00,0.339,0.207,0.338,0.318,0.304,0.171,0.104,north-northwest,8.9,Yes
2018/01/22,17:10,0.338,0.207,0.337,0.319,0.304,0.172,0.104,north-northwest,8.4,Yes
2018/01/22,17:20,0.338,0.206,0.337,0.318,0.304,0.170,0.104,north-northwest,8.8,Yes
2018/01/22,17:30,0.338,0.207,0.337,0.319,0.304,0.172,0.104,north-northwest,9.0,Yes
2018/01/22,17:40,0.338,0.208,0.337,0.318,0.303,0.172,0.104,north-northwest,8.7,Yes
2018/01/22,17:50,0.339,0.208,0.338,0.318,0.304,0.172,0.105,north-northwest,8.2,Yes
2018/01/22,18:00,0.337,0.208,0.337,0.318,0.306,0.172,0.105,north-northwest,9.2,Yes
2018/01/22,18:10,0.338,0.207,0.337,0.319,0.305,0.173,0.105,north-northwest,9.6,Yes
2018/01/22,18:20,0.338,0.208,0.338,0.316,0.304,0.173,0.106,north-northwest,8.7,Yes
2018/01/22,18:30,0.338,0.207,0.338,0.319,0.304,0.173,0.107,north-northwest,9.5,Yes
2018/01/22,18:40,0.337,0.209,0.335,0.317,0.303,0.172,0.106,north-northwest,8.5,Yes
2018/01/22,18:50,0.337,0.208,0.337,0.317,0.305,0.173,0.106,north-northwest,9.5,Yes
2018/01/22,19:00,0.336,0.208,0.336,0.317,0.304,0.173,0.106,north,8.6,Yes
2018/01/22,19:10,0.337,0.207,0.335,0.317,0.303,0.173,0.107,north,10.7,Yes
2018/01/22,19:20,0.336,0.207,0.336,0.317,0.301,0.172,0.107,north,12.0,Yes
2018/01/22,19:30,0.335,0.207,0.336,0.316,0.302,0.173,0.107,north-northwest,10.3,Yes
2018/01/22,19:40,0.334,0.207,0.334,0.316,0.302,0.173,0.108,north-northwest,9.5,Yes
2018/01/22,19:50,0.334,0.207,0.336,0.315,0.301,0.174,0.109,north,10.6,Yes
2018/01/22,20:00,0.334,0.208,0.335,0.316,0.302,0.173,0.109,north,11.2,Yes
2018/01/22,20:10,0.336,0.207,0.335,0.315,0.301,0.173,0.109,north,12.3,Yes
2018/01/22,20:20,0.334,0.206,0.335,0.315,0.300,0.174,0.109,north,11.2,Yes
2018/01/22,20:30,0.332,0.207,0.334,0.314,0.300,0.173,0.108,north,12.5,Yes
2018/01/22,20:40,0.332,0.206,0.332,0.313,0.300,0.172,0.108,north,11.8,Yes
2018/01/22,20:50,0.331,0.206,0.333,0.312,0.299,0.172,0.108,north,11.2,Yes
2018/01/22,21:00,0.330,0.205,0.332,0.312,0.297,0.172,0.108,north,11.1,Yes
2018/01/22,21:10,0.328,0.205,0.331,0.311,0.298,0.172,0.108,north-northwest,11.2,Yes
2018/01/22,21:20,0.328,0.205,0.331,0.312,0.297,0.171,0.108,north-northwest,11.2,Yes
2018/01/22,21:30,0.328,0.203,0.330,0.310,0.296,0.170,0.107,north,12.8,Yes
2018/01/22,21:40,0.326,0.202,0.329,0.308,0.295,0.171,0.108,north,12.5,Yes
2018/01/22,21:50,0.324,0.203,0.328,0.309,0.293,0.170,0.107,north,11.7,Yes
2018/01/22,22:00,0.321,0.202,0.326,0.307,0.290,0.170,0.107,north,11.2,Yes
2018/01/22,22:10,0.320,0.200,0.324,0.305,0.291,0.169,0.107,north-northwest,12.0,Yes
2018/01/22,22:20,0.318,0.200,0.323,0.305,0.287,0.169,0.108,north,11.2,Yes
2018/01/22,22:30,0.316,0.200,0.322,0.304,0.287,0.168,0.108,north-northwest,10.7,Yes
2018/01/22,22:40,0.313,0.199,0.320,0.301,0.285,0.168,0.107,north-northwest,11.7,Yes
2018/01/22,22:50,0.313,0.196,0.319,0.301,0.284,0.166,0.107,north-northwest,10.6,Yes
2018/01/22,23:00,0.309,0.197,0.318,0.300,0.281,0.167,0.106,north,12.3,Yes
2018/01/22,23:10,0.306,0.196,0.316,0.297,0.278,0.166,0.106,north,13.3,Yes
2018/01/22,23:20,0.305,0.195,0.313,0.293,0.277,0.165,0.105,north,11.4,Yes
2018/01/22,23:30,0.300,0.192,0.309,0.292,0.276,0.163,0.103,north,11.5,Yes
2018/01/22,23:40,0.297,0.192,0.308,0.291,0.273,0.162,0.103,north-northwest,12.0,Yes
2018/01/22,23:50,0.296,0.189,0.309,0.289,0.271,0.160,0.102,north-northwest,11.8,Yes
